Time,TemperatureF,DewpointF,PressureIn,WindDirection,WindDirectionDegrees,WindSpeedMPH,WindSpeedGustMPH,Humidity,HourlyPrecipIn,Conditions,Clouds,dailyrainin,SoftwareType,DateUTC
2013-02-25 00:10:00,44.8,40.6,30.12,WSW,247,2.7,-999.0,85,-99.99,,,0.00,Acu-Link.com,2013-02-25 08:10:00,
2013-02-25 00:25:00,44.1,41.1,30.12,West,270,0.0,-999.0,89,-99.99,,,0.00,Acu-Link.com,2013-02-25 08:25:00,
2013-02-25 00:40:00,44.1,41.6,30.12,SSW,202,2.7,-999.0,91,-99.99,,,0.00,Acu-Link.com,2013-02-25 08:40:00,
2013-02-25 00:56:00,44.2,42.0,30.13,West,270,0.0,-999.0,92,-99.99,,,0.01,Acu-Link.com,2013-02-25 08:56:00,
2013-02-25 01:17:00,44.2,42.0,30.12,West,270,0.0,-999.0,92,-99.99,,,0.02,Acu-Link.com,2013-02-25 09:17:00,
2013-02-25 01:32:00,44.4,42.5,30.11,NW,315,0.0,-999.0,93,-99.99,,,0.04,Acu-Link.com,2013-02-25 09:32:00,
2013-02-25 01:48:00,44.6,43.0,30.14,SSW,202,2.7,-999.0,94,-99.99,,,0.07,Acu-Link.com,2013-02-25 09:48:00,
2013-02-25 02:03:00,46.0,44.1,30.15,West,270,4.2,-999.0,93,-99.99,,,0.13,Acu-Link.com,2013-02-25 10:03:00,
2013-02-25 02:18:00,46.0,44.1,30.17,SSW,202,4.7,-999.0,93,-99.99,,,0.17,Acu-Link.com,2013-02-25 10:18:00,
2013-02-25 02:33:00,46.2,44.3,30.17,SW,225,3.2,-999.0,93,-99.99,,,0.18,Acu-Link.com,2013-02-25 10:33:00,
2013-02-25 02:48:00,46.2,44.0,30.17,WSW,247,2.7,-999.0,92,-99.99,,,0.18,Acu-Link.com,2013-02-25 10:48:00,
2013-02-25 03:03:00,45.9,43.7,30.18,NW,315,1.7,-999.0,92,-99.99,,,0.20,Acu-Link.com,2013-02-25 11:03:00,
2013-02-25 03:18:00,45.7,42.9,30.19,NNE,22,2.7,-999.0,90,-99.99,,,0.20,Acu-Link.com,2013-02-25 11:18:00,
2013-02-25 03:33:00,45.1,42.3,30.20,East,90,1.7,-999.0,90,-99.99,,,0.20,Acu-Link.com,2013-02-25 11:33:00,
2013-02-25 03:49:00,44.6,42.1,30.20,WNW,292,2.7,-999.0,91,-99.99,,,0.20,Acu-Link.com,2013-02-25 11:49:00,
2013-02-25 04:04:00,44.6,41.9,30.23,NNW,337,3.7,-999.0,90,-99.99,,,0.22,Acu-Link.com,2013-02-25 12:04:00,
2013-02-25 04:19:00,44.1,40.8,30.22,West,270,4.7,-999.0,88,-99.99,,,0.22,Acu-Link.com,2013-02-25 12:19:00,
2013-02-25 04:34:00,43.3,40.3,30.22,SE,135,0.0,-999.0,89,-99.99,,,0.22,Acu-Link.com,2013-02-25 12:34:00,
2013-02-25 04:49:00,42.6,40.4,30.23,ESE,112,1.7,-999.0,92,-99.99,,,0.22,Acu-Link.com,2013-02-25 12:49:00,
2013-02-25 05:05:00,42.3,40.7,30.23,NE,45,2.7,-999.0,94,-99.99,,,0.22,Acu-Link.com,2013-02-25 13:05:00,
2013-02-25 05:20:00,42.4,40.8,30.23,West,270,0.0,-999.0,94,-99.99,,,0.23,Acu-Link.com,2013-02-25 13:20:00,
2013-02-25 05:35:00,41.9,40.0,30.24,ESE,112,0.0,-999.0,93,-99.99,,,0.23,Acu-Link.com,2013-02-25 13:35:00,
2013-02-25 05:51:00,41.7,40.1,30.24,South,180,1.7,-999.0,94,-99.99,,,0.23,Acu-Link.com,2013-02-25 13:51:00,
2013-02-25 06:21:00,41.9,40.3,30.25,ESE,112,0.0,-999.0,94,-99.99,,,0.24,Acu-Link.com,2013-02-25 14:21:00,
2013-02-25 06:37:00,42.3,39.9,30.26,SW,225,5.3,-999.0,91,-99.99,,,0.26,Acu-Link.com,2013-02-25 14:37:00,
2013-02-25 06:52:00,42.1,39.1,30.26,West,270,4.2,-999.0,89,-99.99,,,0.28,Acu-Link.com,2013-02-25 14:52:00,
2013-02-25 07:07:00,41.5,39.1,30.26,ESE,112,0.0,-999.0,91,-99.99,,,0.29,Acu-Link.com,2013-02-25 15:07:00,
2013-02-25 07:22:00,41.5,38.8,30.29,SSW,202,7.3,-999.0,90,-99.99,,,0.29,Acu-Link.com,2013-02-25 15:22:00,
2013-02-25 07:38:00,41.4,39.0,30.28,SE,135,0.0,-999.0,91,-99.99,,,0.30,Acu-Link.com,2013-02-25 15:38:00,
2013-02-25 07:53:00,41.0,38.9,30.29,ESE,112,1.7,-999.0,92,-99.99,,,0.30,Acu-Link.com,2013-02-25 15:53:00,
2013-02-25 08:08:00,41.0,39.1,30.28,ESE,112,1.7,-999.0,93,-99.99,,,0.30,Acu-Link.com,2013-02-25 16:08:00,
2013-02-25 08:23:00,41.9,39.7,30.28,ESE,112,1.7,-999.0,92,-99.99,,,0.30,Acu-Link.com,2013-02-25 16:23:00,
2013-02-25 08:38:00,43.5,41.6,30.30,ESE,112,0.0,-999.0,93,-99.99,,,0.30,Acu-Link.com,2013-02-25 16:38:00,
2013-02-25 08:54:00,44.2,40.9,30.30,SSW,202,3.7,-999.0,88,-99.99,,,0.30,Acu-Link.com,2013-02-25 16:54:00,
2013-02-25 09:09:00,45.1,40.9,30.30,WSW,247,2.7,-999.0,85,-99.99,,,0.30,Acu-Link.com,2013-02-25 17:09:00,
2013-02-25 09:24:00,44.4,39.6,30.31,NNW,337,2.2,-999.0,83,-99.99,,,0.30,Acu-Link.com,2013-02-25 17:24:00,
2013-02-25 09:40:00,44.1,41.6,30.30,ESE,112,0.0,-999.0,91,-99.99,,,0.31,Acu-Link.com,2013-02-25 17:40:00,
2013-02-25 09:55:00,45.9,42.0,30.31,WSW,247,2.7,-999.0,86,-99.99,,,0.31,Acu-Link.com,2013-02-25 17:55:00,
2013-02-25 10:10:00,45.5,41.0,30.31,SSW,202,2.2,-999.0,84,-99.99,,,0.31,Acu-Link.com,2013-02-25 18:10:00,
2013-02-25 10:25:00,48.0,42.8,30.31,WSW,247,1.1,-999.0,82,-99.99,,,0.31,Acu-Link.com,2013-02-25 18:25:00,
2013-02-25 10:41:00,48.6,41.4,30.31,NW,315,2.2,-999.0,76,-99.99,,,0.31,Acu-Link.com,2013-02-25 18:41:00,
2013-02-25 10:56:00,49.6,41.3,30.32,WSW,247,5.8,-999.0,73,-99.99,,,0.31,Acu-Link.com,2013-02-25 18:56:00,
2013-02-25 11:11:00,49.3,40.3,30.32,West,270,2.7,-999.0,71,-99.99,,,0.31,Acu-Link.com,2013-02-25 19:11:00,
2013-02-25 11:26:00,49.1,39.4,30.31,NNE,22,3.2,-999.0,69,-99.99,,,0.31,Acu-Link.com,2013-02-25 19:26:00,
2013-02-25 11:41:00,45.0,40.2,30.33,WSW,247,4.2,-999.0,83,-99.99,,,0.31,Acu-Link.com,2013-02-25 19:41:00,
2013-02-25 11:56:00,44.6,40.1,30.33,WNW,292,3.7,-999.0,84,-99.99,,,0.32,Acu-Link.com,2013-02-25 19:56:00,
2013-02-25 12:11:00,48.4,42.8,30.32,NNW,337,3.7,-999.0,81,-99.99,,,0.32,Acu-Link.com,2013-02-25 20:11:00,
2013-02-25 12:27:00,47.8,40.3,30.33,West,270,3.7,-999.0,75,-99.99,,,0.32,Acu-Link.com,2013-02-25 20:27:00,
2013-02-25 12:42:00,49.3,41.0,30.31,SW,225,4.7,-999.0,73,-99.99,,,0.32,Acu-Link.com,2013-02-25 20:42:00,
2013-02-25 12:57:00,50.0,42.0,30.31,West,270,4.2,-999.0,74,-99.99,,,0.32,Acu-Link.com,2013-02-25 20:57:00,
2013-02-25 13:12:00,49.6,38.3,30.31,West,270,4.2,-999.0,65,-99.99,,,0.32,Acu-Link.com,2013-02-25 21:12:00,
2013-02-25 13:27:00,50.7,40.5,30.32,SW,225,5.3,-999.0,68,-99.99,,,0.32,Acu-Link.com,2013-02-25 21:27:00,
2013-02-25 13:42:00,49.8,40.0,30.31,West,270,4.7,-999.0,69,-99.99,,,0.32,Acu-Link.com,2013-02-25 21:42:00,
2013-02-25 13:57:00,50.2,39.7,30.31,WNW,292,5.8,-999.0,67,-99.99,,,0.32,Acu-Link.com,2013-02-25 21:57:00,
2013-02-25 14:13:00,50.0,39.1,30.32,NW,315,3.2,-999.0,66,-99.99,,,0.32,Acu-Link.com,2013-02-25 22:13:00,
2013-02-25 14:28:00,49.5,37.8,30.30,WSW,247,6.3,-999.0,64,-99.99,,,0.32,Acu-Link.com,2013-02-25 22:28:00,
2013-02-25 14:43:00,48.4,38.7,30.31,SW,225,6.8,-999.0,69,-99.99,,,0.32,Acu-Link.com,2013-02-25 22:43:00,
2013-02-25 14:58:00,48.9,39.2,30.31,NW,315,4.2,-999.0,69,-99.99,,,0.32,Acu-Link.com,2013-02-25 22:58:00,
2013-02-25 15:13:00,49.1,39.4,30.31,West,270,4.7,-999.0,69,-99.99,,,0.32,Acu-Link.com,2013-02-25 23:13:00,
2013-02-25 15:29:00,48.6,39.6,30.31,South,180,7.3,-999.0,71,-99.99,,,0.32,Acu-Link.com,2013-02-25 23:29:00,
2013-02-25 15:44:00,48.0,39.4,30.31,SW,225,7.8,-999.0,72,-99.99,,,0.32,Acu-Link.com,2013-02-25 23:44:00,
2013-02-25 15:59:00,48.0,38.7,30.31,West,270,4.2,-999.0,70,-99.99,,,0.32,Acu-Link.com,2013-02-25 23:59:00,
2013-02-25 16:14:00,48.6,39.6,30.32,West,270,6.8,-999.0,71,-99.99,,,0.32,Acu-Link.com,2013-02-26 00:14:00,
2013-02-25 16:29:00,48.7,39.4,30.31,West,270,3.2,-999.0,70,-99.99,,,0.32,Acu-Link.com,2013-02-26 00:29:00,
2013-02-25 16:44:00,47.3,38.0,30.30,West,270,4.2,-999.0,70,-99.99,,,0.32,Acu-Link.com,2013-02-26 00:44:00,
2013-02-25 17:00:00,47.8,38.9,30.30,SW,225,2.2,-999.0,71,-99.99,,,0.32,Acu-Link.com,2013-02-26 01:00:00,
2013-02-25 17:15:00,47.3,38.0,30.31,NNE,22,1.1,-999.0,70,-99.99,,,0.32,Acu-Link.com,2013-02-26 01:15:00,
2013-02-25 17:30:00,46.9,38.4,30.33,NNW,337,1.7,-999.0,72,-99.99,,,0.32,Acu-Link.com,2013-02-26 01:30:00,
2013-02-25 17:45:00,45.9,38.4,30.33,WNW,292,3.7,-999.0,75,-99.99,,,0.32,Acu-Link.com,2013-02-26 01:45:00,
2013-02-25 18:01:00,44.1,39.0,30.33,ESE,112,2.7,-999.0,82,-99.99,,,0.32,Acu-Link.com,2013-02-26 02:01:00,
2013-02-25 18:16:00,42.6,38.7,30.33,ESE,112,1.1,-999.0,86,-99.99,,,0.33,Acu-Link.com,2013-02-26 02:16:00,
2013-02-25 18:31:00,41.4,38.1,30.33,ESE,112,1.7,-999.0,88,-99.99,,,0.33,Acu-Link.com,2013-02-26 02:31:00,
2013-02-25 18:46:00,40.3,37.6,30.34,ESE,112,2.2,-999.0,90,-99.99,,,0.33,Acu-Link.com,2013-02-26 02:46:00,
2013-02-25 19:02:00,40.1,37.4,30.33,ENE,67,0.0,-999.0,90,-99.99,,,0.33,Acu-Link.com,2013-02-26 03:02:00,
2013-02-25 19:17:00,39.4,37.0,30.34,ESE,112,0.0,-999.0,91,-99.99,,,0.33,Acu-Link.com,2013-02-26 03:17:00,
2013-02-25 19:32:00,39.0,36.9,30.34,ENE,67,0.0,-999.0,92,-99.99,,,0.33,Acu-Link.com,2013-02-26 03:32:00,
2013-02-25 19:47:00,38.1,35.7,30.35,East,90,0.0,-999.0,91,-99.99,,,0.33,Acu-Link.com,2013-02-26 03:47:00,
2013-02-25 20:02:00,38.3,36.5,30.35,ESE,112,0.0,-999.0,93,-99.99,,,0.33,Acu-Link.com,2013-02-26 04:02:00,
2013-02-25 20:18:00,38.5,36.9,30.34,South,180,0.0,-999.0,94,-99.99,,,0.33,Acu-Link.com,2013-02-26 04:18:00,
2013-02-25 20:33:00,37.4,35.6,30.34,ESE,112,0.0,-999.0,93,-99.99,,,0.33,Acu-Link.com,2013-02-26 04:33:00,
2013-02-25 20:48:00,36.7,34.6,30.34,ESE,112,0.0,-999.0,92,-99.99,,,0.33,Acu-Link.com,2013-02-26 04:48:00,
2013-02-25 21:04:00,36.3,34.2,30.35,East,90,0.0,-999.0,92,-99.99,,,0.33,Acu-Link.com,2013-02-26 05:04:00,
2013-02-25 21:19:00,35.6,33.5,30.35,East,90,0.0,-999.0,92,-99.99,,,0.33,Acu-Link.com,2013-02-26 05:19:00,
2013-02-25 21:34:00,35.2,33.4,30.36,ESE,112,0.0,-999.0,93,-99.99,,,0.33,Acu-Link.com,2013-02-26 05:34:00,
2013-02-25 21:50:00,34.9,33.4,30.35,ESE,112,0.0,-999.0,94,-99.99,,,0.33,Acu-Link.com,2013-02-26 05:50:00,
2013-02-25 22:05:00,34.5,33.0,30.36,East,90,0.0,-999.0,94,-99.99,,,0.33,Acu-Link.com,2013-02-26 06:05:00,
2013-02-25 22:20:00,34.5,33.0,30.36,ESE,112,0.0,-999.0,94,-99.99,,,0.33,Acu-Link.com,2013-02-26 06:20:00,
2013-02-25 22:35:00,35.2,33.9,30.36,SE,135,0.0,-999.0,95,-99.99,,,0.33,Acu-Link.com,2013-02-26 06:35:00,
2013-02-25 22:51:00,35.1,33.8,30.37,ESE,112,0.0,-999.0,95,-99.99,,,0.33,Acu-Link.com,2013-02-26 06:51:00,
2013-02-25 23:06:00,34.7,33.4,30.37,ESE,112,0.0,-999.0,95,-99.99,,,0.33,Acu-Link.com,2013-02-26 07:06:00,
2013-02-25 23:21:00,34.7,33.4,30.37,NNW,337,0.0,-999.0,95,-99.99,,,0.33,Acu-Link.com,2013-02-26 07:21:00,
2013-02-25 23:37:00,34.2,32.7,30.36,SSE,157,0.0,-999.0,94,-99.99,,,0.33,Acu-Link.com,2013-02-26 07:37:00,
2013-02-25 23:52:00,33.8,32.3,30.37,ESE,112,0.0,-999.0,94,-99.99,,,0.33,Acu-Link.com,2013-02-26 07:52:00,